[[{"header":{"parameterUnit":"m.s-1","parameterCategory":1,"la1":30.2991,"la2":30.254,"lo1":-89.0895,"lo2":-89.0444,"dy":0.0017,"dx":0.0017,"nx":28,"ny":28,"refTime":"2024-03-26T21:00:00:Z","depth":0,"parameterNumber":2,"parameterNumberName":"U-component_of_WINDS"},"data":[0,0,0,0,0,0,0,0,0,0,0,0,0,0,0,0,0,0,0,0,0,0,0,0,0,0,0,0,0,0,0,0,0,0,0,0,0,0,0,0,0,0,0,0,0,0,0,0,0,0,0,0,0,0,0,0,0,0,-1.7821,-1.7821,0,-1.7848,-1.7848,-1.7849,-1.7756,-1.7754,-1.7751,-1.7748,-1.7786,-1.779,-1.7793,0,0,0,0,0,0,0,0,0,0,0,0,0,-1.7699,-1.7702,-1.7821,-1.7821,-1.7821,-1.7848,-1.7848,-1.7849,-1.7757,-1.7754,-1.775,-1.7747,-1.7785,-1.7789,-1.7794,0,0,0,0,0,0,0,0,0,0,0,0,0,-1.7742,-1.7703,-1.7821,-1.7778,-1.7775,-1.7848,-1.7848,-1.7849,-1.7758,-1.7753,-1.7749,-1.7745,-1.7784,-1.7789,-1.7794,-1.7912,0,0,-1.7811,-1.7813,0,0,0,0,0,0,0,0,-1.774,-1.7747,-1.7784,-1.7781,-1.7778,-1.7794,-1.7819,-1.787,-1.7759,-1.7765,-1.7748,-1.7743,-1.7793,-1.7797,-1.7812,-1.7914,-1.7915,-1.7811,-1.7815,-1.7817,-1.7818,0,0,0,0,0,0,0,-1.7737,-1.7745,-1.7832,-1.7785,-1.7781,-1.7762,-1.7763,-1.7828,-1.7802,-1.7764,-1.7757,-1.7761,-1.779,-1.7807,-1.7812,-1.7916,-1.7811,-1.7816,-1.7819,-1.7821,-1.812,-1.8124,0,0,0,0,0,0,-1.7738,-1.7743,-1.7831,-1.7832,-1.7748,-1.7767,-1.7769,-1.7793,-1.7801,-1.7798,-1.7765,-1.7757,-1.78,-1.7806,-1.7813,-1.7955,-1.7817,-1.7822,-1.7825,-1.8115,-1.8121,-1.8126,0,0,0,0,0,0,-1.7736,-1.7747,-1.783,-1.7786,-1.7795,-1.7774,-1.7802,-1.7796,-1.7812,-1.7802,-1.7798,-1.7786,-1.7797,-1.7806,-1.7888,-1.7955,-1.7824,-1.7829,-1.811,-1.8117,-1.8124,-1.8237,0,0,0,0,0,0,-1.7733,-1.7746,-1.7788,-1.7787,-1.7798,-1.7902,-1.7806,-1.78,-1.7821,-1.7811,-1.7821,-1.7818,-1.7794,-1.7881,-1.7894,-1.796,-1.7834,-1.8104,-1.8113,-1.8121,-1.8228,-1.8247,-1.8264,0,0,0,0,0,-1.7728,-1.7821,-1.7791,-1.7802,-1.7849,-1.7905,-1.7912,-1.7879,-1.7826,-1.7871,-1.7864,-1.7818,-1.7944,-1.789,-1.7904,-1.7973,-1.81,-1.811,-1.8121,-1.8219,-1.8243,-1.8264,0,0,0,0,0,0,-1.7833,-1.782,-1.7787,-1.788,-1.7894,-1.789,-1.7944,-1.7905,-1.7937,-1.7926,-1.7887,-1.7891,-1.7982,-1.7985,-1.7924,-1.8089,-1.8014,-1.8027,-1.8084,-1.8107,-1.8125,-1.8124,-1.7838,0,0,0,0,0,-1.7866,-1.791,-1.7897,-1.7981,-1.799,-1.7966,-1.7989,-1.7963,-1.7977,-1.7983,-1.7983,-1.8001,-1.8045,-1.8076,-1.8115,-1.8226,-1.823,-1.8281,-1.8299,-1.8314,-1.8328,-1.8391,-1.8415,-1.8161,-1.816,-1.816,0,0,-1.7937,-1.7935,-1.7965,-1.8002,-1.801,-1.806,-1.7972,-1.8027,-1.8065,-1.7993,-1.8071,-1.8071,-1.809,-1.8188,-1.8232,-1.8194,-1.8399,-1.8328,-1.834,-1.8345,-1.8405,-1.8429,-1.845,-1.8168,-1.8166,-1.8165,0,0,-1.8092,-1.8093,-1.8164,-1.8174,-1.8185,-1.8169,-1.8187,-1.8188,-1.8185,-1.8262,-1.8209,-1.8255,-1.8331,-1.8347,-1.8366,-1.8528,-1.8489,-1.8542,-1.8639,-1.8701,-1.8722,-1.8739,-1.8802,-1.8824,-1.8555,-1.8555,-1.8555,0,-1.8179,-1.8249,-1.8207,-1.8267,-1.8287,-1.822,-1.8295,-1.8307,-1.8333,-1.835,-1.8306,-1.8401,-1.8409,-1.8512,-1.8552,-1.8567,-1.859,-1.8542,-1.8721,-1.8739,-1.8755,-1.8814,-1.8837,-1.8562,-1.8561,-1.856,-1.856,0,-1.8358,-1.8407,-1.8464,-1.8488,-1.8514,-1.8581,-1.8554,-1.8585,-1.8557,-1.8547,-1.8628,-1.8634,-1.8676,-1.8698,-1.8671,-1.8799,-1.8775,-1.8727,-1.8651,-1.8786,-1.8842,-1.8863,-1.8572,-1.8569,-1.8567,-1.8565,0,0,-1.8581,-1.8581,-1.8603,-1.8615,-1.8623,-1.8662,-1.8728,-1.8766,-1.8796,-1.8816,-1.8873,-1.8939,-1.8895,-1.8916,-1.889,-1.8944,-1.9078,-1.889,-1.889,-1.8929,-1.9224,-1.9264,-1.929,-1.905,-1.9054,-1.9057,-1.9224,0,-1.8736,-1.8846,-1.8811,-1.8923,-1.8971,-1.8909,-1.8967,-1.8981,-1.8973,-1.9015,-1.9007,-1.9056,-1.8992,-1.9005,-1.9055,-1.9051,-1.9138,-1.9038,-1.9108,-1.9111,-1.911,-1.9318,-1.9359,-1.9517,-1.9245,-1.9249,-1.9251,0,-1.8932,-1.8958,-1.9075,-1.9078,-1.9096,-1.9149,-1.9182,-1.9221,-1.9237,-1.9228,-1.9252,-1.9216,-1.9285,-1.9206,-1.9303,-1.9236,-1.9263,-1.9265,-1.9271,-1.928,-1.9192,-1.9337,-1.9565,-1.9591,-1.9284,-1.9281,-1.9279,0,-1.9089,-1.9153,-1.9232,-1.9243,-1.9247,-1.9286,-1.929,-1.9301,-1.9327,-1.9357,-1.9374,-1.9413,-1.9435,-1.9468,-1.9445,-1.9389,-1.9548,-1.9466,-1.9547,-1.9548,-1.9587,-1.9585,-1.9827,-1.9597,-1.9596,-1.9596,-1.9596,0,-1.9269,-1.9344,-1.9302,-1.9352,-1.9435,-1.9395,-1.9481,-1.9478,-1.9489,-1.9539,-1.9487,-1.9537,-1.9502,-1.9549,-1.9532,-1.9618,-1.9628,-1.9626,-1.9621,-1.9633,-1.9634,-1.9653,-1.9643,-1.9602,-1.9601,-1.96,-1.9599,0,-1.9459,-1.9434,-1.9516,-1.9513,-1.9514,-1.9576,-1.9575,-1.9623,-1.961,-1.9675,-1.9688,-1.9671,-1.9725,-1.9704,-1.9761,-1.975,-1.9861,-1.984,-1.9856,-1.9852,-1.9936,-1.993,-2.0202,-2.0237,-1.998,-1.9982,-1.9984,0,-1.9577,-1.9633,-1.9635,-1.9664,-1.9671,-1.9718,-1.9744,-1.9707,-1.9737,-1.976,-1.9806,-1.9854,-1.9891,-1.9981,-1.9976,-2.0021,-2.0003,-2.0095,-2.001,-2.0021,-2.0011,-2.0009,-2.0017,-2.0114,-2.0117,-2.012,-2.0121,0,-1.9791,-1.9776,-1.9813,-1.9847,-1.9879,-1.9904,-1.9926,-1.9953,-1.9918,-1.9955,-2.0007,-2.0036,-2.0094,-2.0145,-2.0185,-2.0193,-2.0155,-2.0148,-2.017,-2.0185,-2.0193,-2.0194,-1.9907,-2.0143,-2.0141,-2.0139,-2.0138,-2.0137,-1.9952,-2.0001,-2.001,-2.0054,-2.0066,-2.0088,-2.0133,-2.0126,-2.0168,-2.021,-2.0187,-2.025,-2.0267,-2.0317,-2.0331,-2.0382,-2.0347,-2.0377,-2.0386,-2.0396,-2.0408,-2.0181,-2.0389,-2.0388,-2.0388,-2.0387,-2.0387,0,-2.0168,-2.017,-2.0211,-2.0242,-2.0278,-2.0232,-2.0255,-2.0289,-2.0344,-2.0361,-2.0398,-2.0461,-2.051,-2.0509,-2.0556,-2.0597,-2.0581,-2.0611,-2.061,-2.0614,-2.0435,-2.0413,-2.0624,-2.0624,-2.0624,-2.0624,-2.0624,-2.0624,-2.0284,-2.0365,-2.0351,-2.0438,-2.0441,-2.05,-2.0517,-2.0538,-2.0552,-2.0624,-2.0663,-2.066,-2.0672,-2.0719,-2.0764,-2.0762,-2.0784,-2.0823,-2.0816,-2.0649,-2.0626,-2.0604,-2.0583,-2.0827,-2.0827,-2.0991,-2.0992,-2.0993]},{"header":{"parameterUnit":"m.s-1","parameterCategory":1,"la1":30.2991,"la2":30.254,"lo1":-89.0895,"lo2":-89.0444,"dy":0.0017,"dx":0.0017,"nx":28,"ny":28,"refTime":"2024-03-26T21:00:00:Z","depth":0,"parameterNumber":3,"parameterNumberName":"V-component_of_WINDS"},"data":[0,0,0,0,0,0,0,0,0,0,0,0,0,0,0,0,0,0,0,0,0,0,0,0,0,0,0,0,0,0,0,0,0,0,0,0,0,0,0,0,0,0,0,0,0,0,0,0,0,0,0,0,0,0,0,0,0,0,-1.0972,-1.0972,0,-1.1029,-1.103,-1.1031,-1.1014,-1.1012,-1.1011,-1.101,-1.1082,-1.1085,-1.1088,0,0,0,0,0,0,0,0,0,0,0,0,0,-1.0858,-1.0861,-1.0971,-1.0972,-1.0973,-1.1029,-1.103,-1.1031,-1.1014,-1.1012,-1.1011,-1.1009,-1.1081,-1.1084,-1.1088,0,0,0,0,0,0,0,0,0,0,0,0,0,-1.0911,-1.0861,-1.0971,-1.0971,-1.0971,-1.1029,-1.103,-1.1031,-1.1014,-1.1012,-1.101,-1.1009,-1.108,-1.1084,-1.1089,-1.1154,0,0,-1.1103,-1.1105,0,0,0,0,0,0,0,0,-1.0908,-1.0916,-1.097,-1.0971,-1.0972,-1.1012,-1.1016,-1.1073,-1.1015,-1.0998,-1.101,-1.1008,-1.1061,-1.1067,-1.1082,-1.1157,-1.116,-1.1103,-1.1106,-1.1108,-1.1109,0,0,0,0,0,0,0,-1.0905,-1.0913,-1.0995,-1.0971,-1.0972,-1.0972,-1.0977,-1.1027,-1.104,-1.1,-1.0998,-1.1005,-1.1061,-1.1078,-1.1084,-1.1162,-1.1103,-1.1107,-1.111,-1.1112,-1.1297,-1.1299,0,0,0,0,0,0,-1.0899,-1.091,-1.0993,-1.0996,-1.0934,-1.0975,-1.0981,-1.1001,-1.1039,-1.1043,-1.1006,-1.1004,-1.1071,-1.1078,-1.1086,-1.1168,-1.1108,-1.1112,-1.1115,-1.1295,-1.1298,-1.13,0,0,0,0,0,0,-1.0896,-1.0906,-1.0991,-1.0953,-1.0963,-1.0979,-1.1002,-1.1003,-1.102,-1.1044,-1.1047,-1.102,-1.107,-1.108,-1.1137,-1.117,-1.1114,-1.1118,-1.1293,-1.1296,-1.1299,-1.133,0,0,0,0,0,0,-1.0893,-1.0906,-1.0928,-1.0953,-1.0965,-1.1037,-1.1003,-1.1006,-1.1026,-1.1024,-1.1058,-1.1062,-1.1069,-1.113,-1.1142,-1.1176,-1.1122,-1.129,-1.1294,-1.1298,-1.1327,-1.1334,-1.1341,0,0,0,0,0,-1.0889,-1.0936,-1.0929,-1.0939,-1.0993,-1.1038,-1.1046,-1.1049,-1.1029,-1.1054,-1.1069,-1.1061,-1.1164,-1.1136,-1.1149,-1.1185,-1.1288,-1.1293,-1.1298,-1.1323,-1.1333,-1.1341,0,0,0,0,0,0,-1.0918,-1.094,-1.0932,-1.0987,-1.1011,-1.1035,-1.1066,-1.1059,-1.1092,-1.1088,-1.1095,-1.1103,-1.1162,-1.1179,-1.1148,-1.1252,-1.1224,-1.1231,-1.1239,-1.1248,-1.1255,-1.1251,-1.1126,0,0,0,0,0,-1.093,-1.0961,-1.098,-1.1028,-1.1039,-1.1051,-1.1071,-1.1071,-1.1098,-1.1109,-1.1128,-1.1158,-1.1197,-1.1223,-1.126,-1.1328,-1.1338,-1.1359,-1.1366,-1.1372,-1.138,-1.1421,-1.1432,-1.1316,-1.1316,-1.1316,0,0,-1.0957,-1.0972,-1.0993,-1.1034,-1.1052,-1.1089,-1.106,-1.1099,-1.1128,-1.1116,-1.1171,-1.1187,-1.122,-1.1284,-1.1313,-1.13,-1.1413,-1.1378,-1.1383,-1.1388,-1.1427,-1.1438,-1.1448,-1.132,-1.1319,-1.1319,0,0,-1.1025,-1.1038,-1.108,-1.1098,-1.1125,-1.1132,-1.1142,-1.1168,-1.1177,-1.1231,-1.1224,-1.126,-1.1326,-1.1351,-1.1373,-1.1451,-1.1446,-1.1463,-1.1502,-1.1542,-1.1551,-1.1559,-1.1591,-1.1601,-1.147,-1.147,-1.147,0,-1.1056,-1.1106,-1.1104,-1.1144,-1.1164,-1.1151,-1.1196,-1.1216,-1.1255,-1.1271,-1.1254,-1.1338,-1.136,-1.1431,-1.145,-1.1466,-1.1482,-1.1461,-1.1549,-1.1557,-1.1565,-1.1595,-1.1607,-1.1472,-1.1472,-1.1472,-1.1472,0,-1.1145,-1.1181,-1.1212,-1.1247,-1.127,-1.1313,-1.1321,-1.1346,-1.1344,-1.1355,-1.1413,-1.1438,-1.1481,-1.1497,-1.1497,-1.1569,-1.1561,-1.1546,-1.1519,-1.1578,-1.1607,-1.1618,-1.1475,-1.1475,-1.1474,-1.1473,0,0,-1.1235,-1.1265,-1.1278,-1.1294,-1.1322,-1.1352,-1.1396,-1.1434,-1.1458,-1.1485,-1.1526,-1.1582,-1.1569,-1.1594,-1.1597,-1.1631,-1.1696,-1.1613,-1.1614,-1.1631,-1.1781,-1.1794,-1.1807,-1.1691,-1.1693,-1.1695,-1.1779,0,-1.1307,-1.1379,-1.1379,-1.1448,-1.1483,-1.1471,-1.151,-1.1535,-1.1546,-1.1581,-1.1595,-1.1636,-1.1614,-1.1629,-1.1662,-1.168,-1.1727,-1.1674,-1.1734,-1.1736,-1.1728,-1.1821,-1.1834,-1.1913,-1.179,-1.1792,-1.1793,0,-1.1401,-1.1429,-1.15,-1.1525,-1.154,-1.1574,-1.1611,-1.1642,-1.1671,-1.1678,-1.1704,-1.1703,-1.1753,-1.1721,-1.1792,-1.1757,-1.1781,-1.1794,-1.1797,-1.1806,-1.177,-1.1836,-1.1938,-1.1951,-1.181,-1.1809,-1.1808,0,-1.1463,-1.1518,-1.1569,-1.1583,-1.1612,-1.1637,-1.1651,-1.1678,-1.1702,-1.1735,-1.1751,-1.1791,-1.1814,-1.1847,-1.1858,-1.1833,-1.1931,-1.1899,-1.1942,-1.1942,-1.1966,-1.1965,-1.2076,-1.1976,-1.1976,-1.1975,-1.1975,0,-1.1546,-1.1592,-1.1597,-1.1628,-1.168,-1.168,-1.1733,-1.1746,-1.177,-1.1807,-1.18,-1.1837,-1.1847,-1.1887,-1.1896,-1.1956,-1.1966,-1.1976,-1.1979,-1.1979,-1.1978,-1.1997,-1.1994,-1.1979,-1.1978,-1.1977,-1.1977,0,-1.1625,-1.163,-1.1685,-1.1707,-1.1714,-1.1752,-1.1773,-1.1806,-1.1815,-1.1863,-1.1875,-1.1892,-1.1938,-1.1951,-1.2008,-1.2014,-1.2086,-1.2082,-1.2075,-1.2076,-1.212,-1.2117,-1.2251,-1.227,-1.2153,-1.2154,-1.2155,0,-1.1679,-1.1713,-1.1739,-1.1761,-1.1775,-1.1812,-1.1835,-1.1838,-1.1864,-1.19,-1.1929,-1.1974,-1.201,-1.2085,-1.2106,-1.215,-1.215,-1.2194,-1.2157,-1.2157,-1.2155,-1.2154,-1.216,-1.2202,-1.2203,-1.2204,-1.2205,0,-1.1776,-1.1776,-1.1808,-1.1841,-1.1869,-1.1896,-1.1923,-1.1943,-1.195,-1.198,-1.2025,-1.2052,-1.2109,-1.2155,-1.22,-1.222,-1.2216,-1.2215,-1.2229,-1.2231,-1.2226,-1.2233,-1.2098,-1.2213,-1.2213,-1.2212,-1.2212,-1.2211,-1.1846,-1.1877,-1.19,-1.1937,-1.1956,-1.1981,-1.2013,-1.2025,-1.2062,-1.2105,-1.2105,-1.2156,-1.2187,-1.2246,-1.2268,-1.2311,-1.2299,-1.2317,-1.2322,-1.2328,-1.2333,-1.2216,-1.2319,-1.2319,-1.2319,-1.2319,-1.2319,0,-1.1946,-1.1959,-1.1992,-1.2028,-1.2058,-1.2045,-1.2075,-1.2102,-1.2145,-1.2172,-1.2207,-1.2261,-1.2306,-1.2329,-1.2376,-1.2406,-1.2406,-1.2418,-1.2418,-1.2424,-1.2339,-1.2325,-1.2418,-1.2418,-1.2418,-1.2418,-1.2418,-1.2418,-1.2001,-1.2053,-1.2057,-1.212,-1.2134,-1.218,-1.2198,-1.2223,-1.2245,-1.2304,-1.234,-1.2353,-1.2381,-1.2429,-1.2472,-1.2478,-1.2497,-1.2512,-1.2518,-1.2439,-1.2429,-1.242,-1.2407,-1.2515,-1.2515,-1.2599,-1.26,-1.2601]}]]